C/2020 O2 ( Amaral )

Japanese version
Home page
Updated on May 31, 2021

---------------------------------------------------------------------

* Profile

Discovery Date July 23, 2020
Magnitude 18.1 mag
Discoverer Leonardo S. Amaral (Rio de Janeiro, Brazil)

* Pictures

* Orbital Elements

Epoch 2021 Aug. 14.0 TT = JDT 2459440.5
T 2021 Aug. 28.49609 TT                                 Rudenko
q   4.8622273            (2000.0)            P               Q
z  -0.0005222      Peri.   10.29371     -0.17093045     +0.34091451
 +/-0.0000118      Node   256.75598     -0.95797389     -0.27686960
e   1.0025393      Incl.   71.74700     -0.23036669     +0.89839887
From 143 observations 2020 July 23-2021 Apr. 21, mean residual 0".7.

* Finding Charts

* Magnitudes Graph

        m1 = 6.5 + 5 log d + 10.0 log r

---------------------------------------------------------------------

The orbital elements are published on M.P.E.C. 2021-J28.
The charts are made with StellaNavigator Ver.10 (AstroArts).
The magnitudes graphs are made with Comet for Windows.

---------------------------------------------------------------------

Copyright(C) Seiichi Yoshida (comet@aerith.net). All rights reserved.